Theta_e
315 315 315 316 316 315 312 311 311 311 312 314 316 322 327 325 321 321 321 320 320 321 323 324 323 321 321 323 326 329 329 326 321 317 319 323 320 314 313 312 311 311 310 312 313 313 312 311 311 312 314 317 317 318 318 319 319 320 330 329 321 321 322 318 316 315 317 319 311 308 313 315 314 312 312 314 313 314 314 315 317 317 317 316 316 317 316 314
314 315 315 314 316 315 311 310 312 312 312 314 315 320 326 328 324 321 321 320 320 322 324 326 327 324 323 327 328 327 326 324 318 314 320 321 316 312 312 312 311 310 310 312 313 313 312 311 311 312 315 316 316 317 317 318 316 320 326 322 325 329 319 313 313 310 312 314 311 309 312 314 314 313 313 314 313 313 314 315 316 317 317 317 316 316 316 314
315 316 315 313 315 314 310 311 313 311 312 313 314 318 323 328 327 324 322 321 321 322 324 327 328 325 325 328 326 324 322 316 312 315 321 318 312 311 311 311 311 310 310 313 313 313 311 311 311 313 316 316 316 317 316 317 316 316 322 324 328 323 313 310 311 311 312 312 310 310 311 312 313 313 313 314 313 312 314 315 314 315 316 317 316 316 315 314
315 316 315 314 314 313 312 313 314 311 311 312 313 316 320 325 328 327 326 324 324 324 327 328 326 324 326 326 321 319 315 310 310 315 318 314 312 311 311 311 310 310 311 312 313 312 311 311 312 313 316 315 314 316 315 316 315 314 320 327 321 312 313 312 310 312 311 311 311 310 311 312 312 313 313 313 314 314 313 314 315 315 316 316 316 316 316 314
315 315 316 314 313 313 314 314 313 312 311 311 312 314 316 320 325 327 328 327 328 328 328 328 324 323 324 323 318 314 311 310 312 313 314 312 311 310 311 311 310 310 311 313 312 311 310 311 312 314 315 314 314 316 315 313 315 315 314 316 312 309 314 313 310 312 310 311 311 310 311 313 312 312 313 313 316 316 314 314 315 314 315 315 315 316 316 314
314 315 316 314 312 312 314 314 312 310 310 310 310 312 312 315 319 324 327 328 329 328 326 325 323 321 322 321 314 310 309 312 313 312 314 312 310 311 312 311 310 311 312 313 311 310 311 312 313 315 314 313 314 315 315 313 314 318 312 309 310 309 312 311 310 312 311 311 310 309 312 312 311 312 312 313 315 315 314 315 315 314 315 315 315 315 316 315
315 316 316 314 311 312 315 313 310 311 312 309 309 310 311 312 315 319 322 325 326 325 324 323 322 320 321 317 310 308 310 312 312 312 314 312 311 312 312 310 310 311 313 313 310 310 312 312 313 314 314 313 313 313 313 313 312 318 316 309 310 310 310 311 311 312 311 312 311 311 312 311 312 313 311 312 314 314 314 315 314 315 315 314 314 314 315 315
315 316 316 314 311 312 315 312 310 312 312 308 307 308 308 311 312 314 317 319 321 322 321 320 320 320 318 313 308 308 310 312 312 311 312 312 312 312 311 310 310 312 314 312 310 311 312 312 313 314 314 312 313 312 312 313 312 316 316 309 309 310 310 311 311 311 311 311 311 311 311 311 312 312 310 312 314 314 314 314 314 314 314 314 314 314 315 314
315 315 315 313 311 313 313 310 312 313 310 307 307 306 306 308 310 312 313 315 317 318 318 318 319 317 313 309 307 308 311 312 312 311 311 312 312 311 311 310 310 312 314 312 310 311 312 312 313 314 313 311 312 312 311 313 314 313 312 310 309 309 309 310 310 310 310 310 310 311 311 310 311 311 312 313 314 314 314 314 314 314 314 315 314 314 314 314
315 314 314 313 311 313 312 311 313 312 309 307 305 305 305 305 307 309 311 313 314 315 316 317 317 314 310 308 308 308 311 314 313 312 311 312 313 311 310 310 311 313 313 312 310 311 312 312 313 313 313 312 311 311 310 313 314 312 310 310 310 310 310 310 310 309 310 310 310 312 311 310 310 311 313 313 313 313 313 314 314 314 314 314 315 314 314 314
314 313 314 313 312 312 312 312 313 310 308 307 305 305 305 305 306 307 309 311 312 314 315 315 314 312 309 308 307 309 313 315 314 312 311 311 313 311 310 312 313 313 313 311 310 311 312 313 313 313 313 313 311 310 310 311 312 311 311 312 309 309 311 310 311 310 311 311 310 311 311 310 310 312 314 313 313 314 313 314 314 314 314 314 314 315 314 314
314 313 314 313 311 311 311 312 312 310 308 307 306 306 305 305 305 306 308 309 310 312 312 311 310 309 308 307 308 311 314 315 314 312 311 311 312 312 312 314 314 312 311 311 311 311 312 313 313 313 313 312 312 311 311 311 311 311 312 315 311 311 313 310 310 310 311 312 311 311 312 313 313 313 314 313 313 314 313 314 314 313 314 313 314 314 314 314
313 313 314 313 311 311 310 311 311 310 309 307 307 307 306 306 306 307 307 308 309 309 309 309 308 308 308 308 309 311 313 314 314 312 312 311 311 312 313 314 313 311 311 311 311 311 311 313 312 313 312 311 312 311 312 310 310 312 311 314 315 313 314 309 309 311 312 312 311 311 314 319 318 312 312 313 313 313 313 314 314 314 313 313 314 315 314 314
313 313 314 313 312 311 310 310 310 310 309 307 307 307 307 307 307 307 307 308 308 308 308 308 307 307 307 309 310 310 311 312 313 313 313 311 311 313 314 314 312 311 311 311 311 311 312 313 312 313 312 312 311 310 314 311 312 314 310 314 316 314 316 311 308 310 313 312 310 310 313 319 319 311 310 312 312 313 313 313 314 314 313 313 314 314 315 315
314 312 313 313 311 311 310 309 310 310 308 307 307 307 307 307 307 307 307 308 308 307 308 307 306 307 307 309 309 309 310 310 312 314 314 313 311 313 314 313 311 311 312 311 311 311 312 313 312 312 311 312 311 312 316 317 319 318 312 315 315 313 317 314 307 309 313 312 309 311 314 317 316 311 309 311 311 311 313 313 313 313 314 314 314 314 315 315
314 312 313 313 311 311 310 309 309 309 308 307 307 307 307 307 307 307 308 308 308 308 308 307 306 307 307 308 309 310 310 309 311 313 314 314 313 313 313 312 311 312 312 312 312 312 313 313 312 311 310 311 313 315 316 316 321 320 317 320 316 313 316 314 309 307 310 312 310 311 314 318 317 311 310 311 311 311 312 313 313 313 314 314 314 314 314 314
314 312 312 312 311 310 310 309 309 308 308 307 307 307 307 307 307 308 308 308 308 308 308 307 307 307 307 308 310 310 310 310 310 311 313 314 313 313 312 312 312 312 313 313 313 312 313 312 311 312 311 310 312 316 315 314 317 317 319 323 317 315 314 313 313 308 307 311 313 312 313 317 316 310 310 311 310 311 312 313 313 313 313 313 314 314 314 314
315 313 312 312 311 311 310 309 308 308 308 307 307 307 307 307 307 307 308 307 307 307 307 307 307 308 308 308 310 311 310 310 310 311 312 313 313 312 312 312 312 313 313 313 313 313 313 310 311 315 313 311 312 314 315 315 316 314 316 319 315 313 312 313 315 310 309 313 314 315 313 315 315 310 310 310 310 311 312 313 313 314 313 313 313 313 314 314
316 313 312 311 311 311 310 309 308 308 308 307 307 307 307 307 307 307 307 307 307 308 309 309 307 310 311 308 309 311 311 310 310 311 311 312 312 311 312 313 313 314 313 313 313 312 312 311 312 316 314 313 313 313 316 318 317 314 315 318 318 317 313 314 317 309 307 313 315 315 315 315 316 314 311 310 310 310 311 312 313 314 314 314 313 314 314 314
315 313 312 311 312 311 310 309 308 307 308 307 307 307 307 307 308 309 308 308 308 308 309 309 308 310 310 308 309 312 312 311 311 311 311 312 312 312 313 313 313 314 312 315 316 311 312 315 314 315 314 314 314 313 316 317 315 314 316 319 319 318 316 314 315 309 305 312 316 315 317 316 316 315 310 309 310 309 310 311 313 314 314 315 315 314 315 315
315 313 312 311 312 311 310 309 308 308 308 307 307 307 307 307 308 309 309 309 309 309 309 308 308 310 310 308 310 312 312 312 312 311 312 311 312 312 312 312 313 313 311 311 313 311 313 315 315 315 312 312 313 312 314 315 314 315 316 318 316 316 317 312 312 311 305 310 317 316 316 315 314 313 309 308 309 310 311 311 313 315 315 316 316 316 316 316
315 314 312 311 311 311 310 310 309 308 308 307 307 308 307 308 309 309 309 309 309 309 310 308 308 310 311 308 310 313 312 312 312 312 312 311 312 312 312 313 314 314 311 310 312 313 314 316 315 312 307 308 312 314 316 316 317 319 317 316 316 316 316 311 311 312 308 311 317 317 316 316 315 315 311 307 308 311 313 313 314 315 315 315 315 316 316 316
315 314 313 311 311 311 310 310 309 308 308 307 307 308 308 309 311 310 308 309 309 309 309 309 308 309 311 310 311 312 312 312 312 312 312 312 312 312 311 312 314 315 313 312 315 315 317 318 313 306 305 310 313 313 316 317 317 320 318 317 317 315 315 315 312 312 310 310 315 317 316 317 317 316 314 308 306 310 313 314 314 314 315 315 315 315 315 315
315 315 314 312 311 311 311 310 310 309 308 307 307 308 308 310 311 309 308 308 308 309 309 309 308 308 310 311 311 312 312 311 312 312 312 312 312 311 312 311 313 314 312 313 314 314 316 313 305 303 308 313 314 312 315 316 314 315 318 322 322 317 316 317 313 312 311 309 312 314 315 322 324 321 318 311 304 306 310 311 313 314 315 315 315 315 314 314
315 314 314 313 312 312 311 311 310 310 309 307 308 308 308 311 310 308 309 308 308 309 308 309 309 308 309 311 312 312 312 311 311 312 312 312 312 311 311 310 312 313 312 313 313 314 314 306 303 307 310 312 313 314 316 316 315 315 316 323 325 320 318 316 313 315 316 313 311 310 314 327 332 327 321 316 312 313 309 307 311 314 314 313 315 315 314 315
315 314 313 313 313 312 311 311 310 310 309 307 308 308 308 310 309 308 310 310 311 309 307 309 310 309 310 311 312 312 313 312 311 312 312 312 312 311 311 309 310 312 312 311 311 313 311 304 306 311 311 312 312 312 314 315 317 315 314 317 320 320 320 319 317 319 322 315 309 309 316 323 327 326 322 318 320 323 314 307 309 312 313 313 313 314 314 314
316 315 314 313 313 312 311 311 310 310 309 308 308 308 309 310 308 308 310 310 311 310 308 309 309 309 310 311 312 312 314 314 312 312 312 312 312 310 311 310 309 309 308 309 312 311 308 306 309 312 312 314 313 312 313 315 317 316 313 314 318 320 320 320 318 321 321 313 311 316 318 316 318 322 321 315 318 322 318 314 312 310 311 313 312 313 313 313
317 315 315 314 313 312 311 311 310 310 309 308 308 308 309 309 308 309 313 310 310 309 308 308 309 310 311 311 312 311 313 313 312 313 312 312 311 309 311 311 311 312 307 308 314 310 308 312 312 311 313 313 314 315 313 315 318 316 310 312 316 317 319 320 319 321 317 310 316 321 314 312 318 323 322 315 313 318 321 321 315 309 310 313 312 313 313 313
317 316 316 314 314 313 311 310 310 309 309 308 308 309 309 309 307 309 313 310 308 308 308 308 309 310 311 311 311 310 311 311 312 313 311 311 311 309 310 308 308 313 308 309 317 312 309 311 309 310 313 313 315 313 311 317 319 311 305 310 314 315 318 319 320 320 316 314 322 321 311 312 319 326 325 315 313 319 321 321 315 308 311 314 313 314 314 313
317 316 316 315 314 313 312 311 310 309 309 308 308 309 308 309 309 309 310 310 309 308 306 307 309 311 311 311 310 310 311 311 311 311 310 310 310 308 310 308 308 314 314 314 318 313 308 308 308 309 311 310 310 309 307 313 311 306 310 314 315 320 322 323 323 319 314 319 323 316 311 312 313 323 324 315 314 318 316 318 314 310 313 314 313 315 314 313
317 316 315 315 314 313 312 311 310 310 309 308 309 309 308 310 311 309 308 311 312 308 306 307 309 311 311 311 311 311 312 311 309 310 311 310 310 309 309 310 310 315 317 317 316 313 310 310 309 309 307 307 309 310 306 305 304 310 321 319 314 321 322 324 328 319 314 323 320 310 310 311 311 320 323 316 316 316 313 317 317 313 313 313 314 315 315 314
317 316 315 314 313 312 312 311 310 310 308 308 310 309 308 310 310 309 308 309 310 310 308 309 309 311 312 311 312 312 313 312 309 310 313 311 311 310 310 313 315 313 313 314 315 313 314 313 309 308 308 308 313 315 310 308 311 315 319 318 317 320 317 320 325 318 317 321 312 308 310 310 310 316 317 316 317 314 309 311 313 312 311 313 314 315 315 315
316 316 314 314 313 312 311 310 310 309 308 309 310 309 310 310 309 309 308 308 309 309 309 309 309 311 311 310 312 312 313 313 310 310 311 311 311 310 310 314 317 316 315 316 317 314 315 315 311 311 311 308 312 315 312 313 315 313 313 317 321 320 315 316 317 314 316 316 309 307 310 312 313 313 315 317 313 310 307 306 310 311 311 314 314 314 316 316
316 315 314 314 313 312 311 310 310 308 308 310 309 309 312 311 310 310 308 307 309 308 308 310 310 311 311 311 312 312 312 312 311 311 311 312 312 311 312 311 313 319 320 316 316 314 315 316 313 313 312 309 312 314 314 315 313 313 314 315 318 323 323 320 319 319 320 316 311 308 310 318 319 312 312 313 307 306 309 308 310 311 312 314 313 314 316 315
316 315 315 314 314 314 312 311 310 308 309 310 308 308 310 310 310 310 308 307 310 310 309 310 311 312 312 313 312 310 312 312 310 311 312 312 312 312 312 310 311 319 319 314 314 314 313 314 313 310 307 309 313 311 311 314 314 313 312 313 316 321 325 320 315 318 319 316 314 311 313 320 317 311 310 307 306 306 307 307 309 311 313 313 313 315 315 315
315 315 315 314 314 314 312 311 310 308 309 310 308 308 309 309 311 311 308 308 311 310 310 311 313 313 311 312 312 310 311 313 312 312 312 312 312 311 311 310 311 314 315 315 316 315 312 312 312 310 307 308 311 308 307 311 314 313 311 315 317 314 319 317 308 308 311 313 315 313 315 317 313 312 316 313 312 311 307 306 306 310 313 312 313 316 315 315
313 313 314 314 313 313 312 312 309 309 310 309 307 309 309 307 309 310 308 308 309 309 311 311 311 313 312 312 313 312 312 313 312 313 313 312 312 312 311 311 310 310 312 314 316 316 316 314 312 312 312 308 306 306 305 305 310 315 315 315 312 309 316 318 312 313 314 313 317 315 314 317 314 315 320 317 313 314 313 309 305 307 311 312 314 315 315 316
312 313 313 312 313 312 312 312 310 309 310 309 308 312 313 308 306 307 307 307 308 311 312 312 311 312 312 312 312 311 312 313 311 313 313 311 313 313 311 311 310 309 309 310 311 314 318 316 310 310 314 311 308 310 310 307 306 312 314 311 312 315 317 314 312 317 316 312 320 320 312 311 312 316 321 315 314 318 315 310 308 308 310 312 314 314 314 315
312 312 312 312 312 311 312 311 310 310 311 310 309 311 313 309 305 305 307 307 309 311 311 312 313 311 311 312 312 311 312 312 311 312 312 311 313 312 310 311 312 308 306 309 311 312 316 317 312 309 311 312 312 313 315 314 308 308 308 306 313 321 319 314 313 316 315 311 317 322 316 313 313 315 320 314 315 322 318 315 314 309 309 313 313 313 314 315
312 311 311 312 311 310 310 310 309 311 311 310 309 308 309 308 305 304 307 308 309 310 311 314 313 311 312 312 311 311 312 313 311 311 312 311 310 310 308 310 312 308 306 308 313 313 313 315 314 312 310 312 316 315 315 315 311 310 310 309 312 315 313 314 313 313 317 316 317 317 318 325 322 313 316 315 314 319 318 319 316 307 308 313 312 313 314 313
311 311 311 310 310 309 309 309 310 311 311 310 309 310 309 307 306 305 306 308 308 308 311 314 313 313 315 313 311 312 312 312 311 311 312 311 310 311 309 309 310 310 308 309 313 316 314 313 315 314 313 314 316 312 309 312 313 311 311 311 313 313 314 315 312 311 312 314 317 315 313 325 324 311 312 315 312 311 307 307 310 307 308 312 312 312 313 312
311 310 310 309 309 309 309 311 311 311 311 310 309 310 309 307 307 306 306 308 309 309 309 312 314 315 314 311 311 313 313 312 311 311 314 312 311 312 309 307 308 308 309 311 313 313 313 317 320 317 315 314 312 306 302 306 312 311 310 313 314 313 315 318 316 314 309 306 311 313 311 319 322 310 308 309 305 304 302 302 307 308 309 310 311 312 312 312
309 309 310 310 309 309 310 312 312 311 311 310 307 308 308 308 309 308 307 308 309 309 309 311 312 311 312 312 312 312 312 312 311 312 314 313 311 311 308 307 308 308 309 312 312 310 311 318 320 317 316 314 311 308 303 305 311 312 313 314 313 312 315 319 320 318 313 308 311 313 311 318 325 309 300 301 301 301 303 305 307 309 310 310 311 312 312 312
306 308 310 310 309 309 310 312 312 311 310 308 308 309 308 308 309 308 309 309 310 311 312 312 309 308 312 315 313 311 311 312 312 311 313 313 310 308 307 307 309 310 309 311 313 310 311 317 318 316 317 316 314 313 311 312 313 314 317 314 311 314 314 314 315 315 315 314 313 316 315 318 323 313 304 305 306 305 305 307 308 309 310 311 312 312 312 312
304 306 308 309 309 310 310 310 310 311 310 309 310 311 310 308 307 307 308 309 311 313 311 310 308 310 314 314 310 310 311 313 315 311 310 313 311 306 306 307 309 309 310 310 311 310 313 317 316 315 316 315 316 316 316 317 315 315 318 313 311 313 312 312 314 313 315 315 311 317 319 314 315 315 311 312 314 311 309 308 309 310 311 312 312 312 313 313
303 305 307 308 309 310 309 308 309 310 310 310 310 310 311 310 308 308 309 310 310 310 309 308 308 310 313 312 310 311 311 312 314 313 311 313 313 307 305 306 308 308 309 310 309 312 317 317 314 314 314 313 314 314 315 319 317 316 317 314 311 310 310 316 318 314 315 314 310 315 317 311 313 315 313 314 316 317 312 308 309 311 311 312 312 312 313 313
304 305 305 306 308 308 308 307 308 309 309 309 310 309 310 311 310 309 310 309 310 311 311 310 309 310 311 311 311 312 311 310 312 313 312 311 312 309 305 305 307 307 309 309 309 315 320 316 312 314 315 313 314 315 315 317 316 315 316 313 312 310 311 315 316 313 314 314 312 313 313 311 313 316 317 317 318 320 313 306 309 312 311 311 311 312 313 313
304 304 303 305 307 307 307 307 308 309 309 309 310 310 309 310 311 311 311 309 309 312 313 312 311 311 311 311 311 312 311 310 310 312 312 311 312 310 307 306 306 306 309 309 308 313 317 314 314 315 314 313 315 317 317 316 315 316 316 314 312 311 312 313 313 313 314 313 312 313 313 312 311 313 318 317 313 313 311 308 311 312 311 311 311 311 312 312
303 303 302 304 305 304 307 308 307 309 310 309 310 310 309 310 310 311 311 311 312 313 313 313 314 313 311 311 311 312 312 311 311 312 312 311 312 312 311 310 308 306 308 310 309 309 313 315 315 313 312 313 314 315 315 314 315 316 315 313 312 311 311 312 312 312 312 313 313 312 313 313 311 311 315 313 308 307 308 309 311 311 311 311 310 311 312 312
303 303 302 303 303 302 305 307 307 309 309 309 310 309 309 309 310 310 310 311 314 314 312 313 316 313 311 311 311 312 312 312 312 313 312 311 312 312 313 313 311 308 307 310 310 307 309 316 314 311 312 313 312 314 314 313 315 316 314 311 311 310 311 311 312 312 311 312 312 311 312 312 309 308 309 309 308 307 307 309 311 311 312 311 311 312 312 312
302 303 302 303 303 303 304 306 308 309 308 308 309 309 309 308 309 309 309 308 311 315 313 314 317 314 310 310 312 312 311 311 312 311 311 311 312 312 311 310 310 310 309 310 311 309 309 314 314 312 313 313 311 312 313 313 313 314 313 311 310 310 311 311 311 311 311 311 311 311 311 312 309 307 307 308 307 306 307 309 310 311 312 312 312 312 312 312
301 302 302 304 305 304 304 305 307 308 309 308 308 308 309 309 308 308 309 308 308 311 312 314 316 317 314 311 311 310 308 307 308 308 308 309 309 309 309 308 308 311 311 311 313 313 313 314 315 315 315 314 310 309 312 313 312 312 313 313 311 310 310 311 311 311 311 311 312 311 310 312 312 309 309 310 308 306 308 310 311 312 312 312 313 313 312 312
Wind_Speed
32 32 31 30 28 27 28 28 28 29 33 38 40 42 44 43 40 38 36 34 31 28 25 23 21 20 19 19 17 15 14 15 15 14 19 24 17 14 16 12 11 10 10 11 9 9 9 8 8 8 10 10 7 10 10 7 9 5 3 3 2 3 3 6 8 7 4 3 7 12 17 12 6 9 9 7 8 6 10 13 9 13 12 6 8 6 10 19
31 32 31 32 30 27 27 28 27 27 31 36 40 42 44 45 42 39 38 36 34 31 27 24 22 21 20 18 16 15 14 14 13 16 23 22 16 16 16 14 13 11 10 12 10 10 9 9 9 10 11 9 6 10 9 7 8 3 3 3 3 5 4 6 10 10 3 2 10 12 16 14 7 11 12 5 5 7 7 11 10 13 16 10 8 8 9 17
31 31 30 31 30 27 27 27 26 27 30 33 38 41 42 44 43 41 40 38 36 33 29 26 22 21 20 18 16 14 12 9 11 19 24 19 17 17 15 13 13 12 12 12 10 9 9 8 9 11 12 8 6 9 7 6 6 1 4 3 4 6 4 5 10 12 4 4 12 13 13 13 8 11 12 6 5 6 7 11 12 13 17 15 11 9 10 16
32 31 29 30 29 26 26 27 26 26 28 31 36 38 40 43 43 41 40 38 36 33 30 26 22 22 22 19 16 12 6 3 12 20 19 16 17 15 14 13 12 11 12 12 10 9 9 9 10 12 11 6 5 8 6 5 5 2 4 3 4 5 3 4 7 9 5 4 12 14 12 9 9 11 12 9 5 3 11 17 17 16 16 16 14 11 11 16
32 32 29 29 29 27 27 26 26 26 27 29 31 35 38 40 41 40 38 37 35 32 28 26 23 22 21 19 14 10 5 0 9 14 13 15 14 14 14 13 12 12 12 12 11 10 11 10 12 12 8 4 5 6 4 5 6 4 2 1 5 6 3 4 4 7 8 5 11 14 11 10 10 10 13 13 7 6 12 17 17 16 14 14 15 13 13 16
32 32 30 28 29 29 28 26 26 25 25 27 28 31 34 37 39 39 37 35 34 32 28 26 25 22 19 17 13 12 10 2 2 5 9 14 13 15 15 13 13 12 12 12 11 11 12 12 13 12 6 3 4 5 4 7 6 3 0 1 6 4 2 5 4 6 9 9 14 15 11 12 11 7 12 17 15 10 8 9 11 14 14 14 15 14 14 15
32 31 29 28 29 30 29 26 26 25 24 27 28 29 31 34 37 37 36 35 34 32 28 26 25 22 19 16 13 14 17 13 4 6 4 9 13 16 14 13 13 13 13 12 12 13 14 16 15 13 7 3 4 4 5 9 5 3 2 3 6 3 2 4 4 7 11 10 12 15 11 11 12 6 8 18 23 16 7 4 5 10 15 15 15 15 13 14
32 31 29 28 28 30 28 25 25 24 24 27 27 28 29 31 34 35 36 35 34 31 28 26 24 21 18 17 16 16 21 22 14 5 1 3 12 16 14 14 14 14 14 12 13 14 15 16 17 14 6 2 5 6 8 7 1 2 4 5 6 4 4 5 6 9 10 8 10 14 9 8 12 6 6 17 21 18 14 9 4 6 14 17 16 16 14 14
31 31 29 28 29 30 28 26 26 24 24 26 26 28 29 30 32 33 34 34 33 30 28 25 22 21 19 19 18 13 18 23 18 14 8 5 9 15 15 14 14 15 15 13 13 14 15 15 18 15 6 5 8 7 10 7 1 3 7 8 7 5 6 8 8 9 9 9 12 12 4 4 9 5 8 17 16 16 18 16 11 8 11 17 17 16 15 15
30 31 30 29 30 29 27 27 26 24 25 25 26 26 27 30 31 31 32 32 30 29 27 25 24 23 21 21 18 9 15 20 17 17 11 5 6 13 15 14 14 15 14 14 13 15 15 14 17 14 6 8 9 6 8 5 2 10 14 12 10 8 6 6 9 11 10 10 10 9 3 2 6 3 6 9 10 14 18 18 19 15 12 15 17 18 17 16
28 31 30 29 29 27 27 27 26 25 25 25 26 26 27 30 30 30 30 29 29 28 27 26 26 25 22 23 19 12 15 16 13 14 12 8 5 10 15 14 13 14 14 14 13 15 14 11 14 13 3 7 10 5 5 5 7 17 19 13 9 8 8 6 9 10 8 7 5 7 3 1 4 3 6 6 4 8 14 17 19 19 16 14 16 19 19 17
28 30 29 27 27 27 27 28 26 25 25 25 26 27 28 29 29 29 28 28 28 27 28 27 26 25 22 21 22 21 16 12 9 10 14 14 7 8 14 13 11 12 12 12 11 14 13 10 14 12 4 9 10 4 6 9 12 15 12 7 5 6 7 5 4 4 4 3 5 8 2 2 2 7 8 6 6 6 10 14 16 19 19 16 17 19 20 19
27 29 28 26 27 27 26 26 26 25 26 26 26 27 27 27 28 27 27 27 27 27 27 26 24 24 21 17 22 25 17 10 10 9 13 15 9 9 14 13 12 11 12 11 10 12 13 10 12 12 8 10 6 5 10 10 10 7 4 4 3 4 3 3 3 2 4 3 6 8 1 5 8 14 11 6 8 8 9 13 15 18 19 19 18 18 20 21
26 28 29 27 26 26 24 24 25 25 26 26 26 26 26 27 27 26 26 26 26 25 24 24 23 22 20 15 17 22 20 13 11 10 11 13 11 10 13 13 12 11 11 11 10 11 12 10 10 11 8 9 9 12 9 5 5 4 2 3 3 3 3 5 3 1 4 3 5 7 2 6 8 10 10 10 12 11 11 13 15 18 19 20 19 19 19 20
24 27 29 27 26 26 25 25 25 25 27 27 26 26 26 26 26 26 26 25 24 23 23 22 22 20 16 14 12 14 21 19 13 10 9 11 12 12 14 14 12 11 10 10 11 11 11 10 10 9 8 11 15 12 4 4 4 3 3 0 2 4 4 6 3 1 3 3 3 6 2 6 7 7 5 7 11 13 14 13 15 18 20 21 21 20 20 19
23 27 29 27 27 26 25 26 25 26 27 27 26 26 26 25 25 25 25 24 24 23 22 21 22 19 9 9 12 12 19 23 18 12 9 10 12 12 13 12 11 11 10 10 11 12 12 11 10 9 10 11 10 7 4 4 3 4 3 3 1 4 2 3 1 2 1 3 1 2 2 3 3 4 3 1 3 8 13 15 15 17 19 21 23 23 22 22
23 26 28 28 28 27 26 26 26 26 27 28 27 26 25 25 24 25 24 23 22 20 21 20 21 17 6 8 13 13 18 22 22 17 10 9 12 13 13 12 12 11 11 11 11 12 12 11 10 7 6 5 3 5 5 1 2 1 2 2 2 4 3 2 2 2 2 3 2 0 2 6 5 4 6 3 5 6 10 14 16 17 19 20 22 24 25 24
24 25 27 29 28 28 27 26 27 27 28 28 27 25 24 23 23 22 22 22 21 19 16 18 19 10 7 11 10 12 18 19 20 19 13 10 13 13 12 11 12 13 12 11 10 11 9 7 6 4 2 3 2 5 6 5 6 6 4 4 2 2 2 2 3 2 2 2 3 2 4 11 10 11 15 13 9 9 10 12 14 17 19 21 22 24 24 25
25 25 28 29 28 29 28 27 28 28 29 29 27 27 24 22 21 19 22 24 21 14 7 17 21 5 3 13 13 11 15 15 16 19 16 13 14 13 11 10 12 15 13 8 6 8 7 5 4 4 3 4 6 6 7 8 8 9 7 5 5 4 3 4 4 4 1 3 4 6 6 9 9 11 16 16 10 11 14 13 15 16 17 20 22 23 24 25
26 25 28 29 29 29 28 29 29 28 31 30 31 31 24 22 15 11 22 24 18 8 2 18 26 4 3 14 18 12 12 14 16 18 17 15 15 14 12 12 13 12 8 5 5 5 6 4 3 5 7 8 9 7 6 5 6 8 6 5 5 5 2 3 3 5 1 4 4 4 4 9 11 10 15 19 13 12 17 18 20 20 18 20 21 22 23 24
28 26 28 29 29 30 29 30 28 29 31 30 36 31 22 24 13 10 21 16 12 8 5 18 28 6 4 11 20 16 14 13 14 18 17 16 17 14 11 11 9 5 2 3 4 3 4 5 6 6 7 8 6 6 7 6 6 6 6 6 2 2 2 2 2 4 2 2 3 2 3 10 12 10 14 18 11 12 19 19 21 22 21 23 22 23 23 23
28 27 27 29 30 29 29 30 28 30 30 31 37 24 18 26 16 17 25 10 8 10 5 15 28 9 3 8 18 16 13 9 10 18 19 18 19 13 10 8 5 3 1 4 5 3 3 4 6 6 7 8 6 5 7 7 6 5 4 6 2 2 2 2 2 3 4 1 3 3 3 9 11 9 13 16 12 15 21 21 22 23 23 25 25 25 26 26
28 27 27 28 30 29 28 30 29 30 30 33 33 18 17 24 13 19 25 9 8 11 3 11 24 17 3 7 17 14 9 7 9 18 21 21 20 14 12 8 4 5 3 4 6 5 5 5 5 8 11 10 5 4 8 7 4 4 4 5 3 3 2 2 3 2 3 1 1 0 2 7 8 6 11 14 14 17 21 23 24 24 26 27 26 27 28 29
28 28 27 27 29 28 27 28 29 30 30 33 28 16 22 24 15 22 20 6 4 9 7 6 15 23 11 6 14 13 7 6 9 19 22 22 21 14 11 9 6 5 4 6 7 7 5 5 3 9 9 9 7 3 6 6 2 0 3 6 4 5 5 3 3 1 2 2 3 2 3 6 4 4 8 7 5 10 15 19 24 26 28 28 28 30 30 30
29 28 27 27 27 27 28 27 29 30 30 33 25 17 25 23 18 25 16 6 3 5 7 6 6 17 18 8 11 13 9 6 8 18 23 22 20 13 7 8 6 4 5 5 7 5 4 2 6 8 4 6 8 5 6 7 4 2 4 6 7 8 7 4 5 5 3 1 2 2 2 5 4 4 8 4 5 7 8 11 20 25 24 25 28 29 27 25
31 29 27 27 26 27 28 25 27 30 29 32 26 19 25 23 21 24 12 5 0 2 5 9 5 10 17 12 12 14 8 3 7 18 23 20 18 13 7 5 2 2 6 6 4 3 1 1 4 6 5 5 5 4 6 6 6 2 4 6 8 8 9 8 7 5 2 2 1 2 4 5 6 5 6 4 6 8 7 8 17 22 20 19 22 22 20 19
31 30 28 27 28 30 29 25 27 30 28 30 26 21 24 23 23 21 8 6 2 3 6 8 7 9 13 13 16 13 4 6 10 15 22 19 16 13 7 4 2 1 5 5 2 1 2 4 4 5 6 5 5 4 5 7 7 3 3 6 10 9 10 9 7 4 2 3 2 3 3 2 5 5 6 4 5 9 8 8 13 16 14 13 14 15 16 17
33 31 29 29 27 29 29 26 29 30 28 29 27 23 24 25 22 15 6 3 2 4 6 6 8 11 13 16 18 10 6 11 10 10 21 20 15 10 5 6 6 4 3 4 5 2 3 5 5 7 5 4 5 4 6 10 6 3 2 6 8 8 8 6 6 4 1 2 1 4 2 1 5 6 5 4 3 8 8 8 10 9 8 8 10 10 12 15
36 34 32 30 26 25 25 22 26 29 28 30 29 24 25 25 18 8 4 2 3 3 4 8 10 11 13 15 13 7 9 8 4 8 18 17 13 7 3 7 9 8 3 3 5 2 1 4 6 7 6 5 4 2 2 5 3 4 6 8 7 6 6 5 5 4 3 2 4 4 2 1 5 6 3 2 2 6 8 8 7 6 4 4 6 6 8 10
39 38 35 33 29 27 24 19 21 26 26 30 29 25 27 23 12 6 2 3 3 2 4 8 9 11 13 10 4 3 6 4 5 12 12 9 9 6 7 9 9 8 4 6 4 1 2 1 1 2 3 5 5 4 4 2 7 11 8 7 7 6 5 3 3 4 3 1 5 4 2 0 3 6 4 3 4 6 6 5 4 3 1 1 3 3 3 3
39 39 37 34 30 28 26 22 23 25 28 31 29 27 25 13 4 4 5 3 3 2 3 3 5 9 14 11 5 3 4 3 7 12 7 4 6 6 8 7 4 5 3 3 3 3 3 3 1 1 4 7 7 6 7 5 8 8 4 6 6 4 4 4 4 3 2 4 6 4 2 1 3 6 4 4 6 5 5 4 3 3 2 3 4 3 1 4
38 39 37 32 26 25 26 25 25 28 30 32 32 28 18 5 1 5 4 3 3 4 5 5 5 7 12 12 8 6 4 3 5 7 5 3 4 5 4 4 4 4 1 3 1 3 3 1 2 1 2 4 5 5 5 4 3 5 4 7 6 2 2 1 3 1 2 5 4 3 1 1 6 7 7 9 10 8 9 10 8 8 7 4 4 2 3 6
38 38 35 31 25 23 24 24 26 31 34 36 32 21 9 3 7 8 4 3 2 2 5 6 4 5 9 10 6 4 3 2 6 5 3 3 4 4 1 2 5 5 3 5 3 2 1 4 2 2 2 4 4 6 3 2 1 4 6 6 5 3 3 2 3 1 3 4 3 3 1 2 5 6 8 13 9 5 8 11 10 10 9 5 4 2 3 6
39 38 36 34 27 22 22 23 27 33 37 38 27 11 6 6 9 7 7 5 1 2 3 5 6 6 6 5 4 5 3 0 4 6 3 4 5 4 3 2 3 4 4 4 3 5 4 3 3 3 1 2 3 4 5 5 4 3 3 5 6 5 5 5 4 3 3 2 2 3 1 3 3 2 6 11 10 7 10 13 13 13 10 7 4 1 4 7
41 41 42 39 31 24 22 24 28 34 40 35 17 6 9 10 7 7 9 6 1 2 3 4 8 8 5 0 2 4 2 0 2 4 4 5 6 7 6 6 5 4 6 4 3 3 3 3 3 2 1 2 3 3 3 6 4 2 1 5 3 4 5 4 3 5 5 1 1 2 3 4 4 6 9 8 10 12 13 13 14 16 14 10 5 2 6 8
46 47 45 39 33 27 23 26 29 35 40 28 9 7 11 8 5 6 7 5 5 6 7 5 4 6 5 0 1 4 1 2 5 3 3 4 3 6 7 6 7 6 5 6 3 1 2 2 3 3 2 2 1 2 1 2 3 2 2 3 5 4 8 6 2 0 4 2 2 1 3 5 4 7 9 5 6 8 7 7 10 14 14 12 8 5 7 9
49 47 43 37 33 29 26 28 29 35 36 19 7 10 8 4 4 5 6 8 9 11 11 5 2 5 7 3 3 7 2 2 4 3 4 4 2 6 6 4 7 11 7 4 3 4 5 2 3 2 1 2 1 2 4 4 3 4 3 5 4 3 5 5 2 2 4 2 3 1 4 5 2 3 7 5 5 9 5 5 7 9 12 14 11 8 10 9
44 40 37 35 32 29 29 27 28 34 27 9 9 11 3 2 4 6 11 11 10 10 8 5 4 3 7 6 4 6 4 3 5 4 5 4 4 7 9 5 7 13 11 5 2 2 4 3 2 1 1 2 3 3 4 5 4 3 4 3 4 3 2 2 3 2 1 2 3 3 3 3 4 5 4 3 7 9 6 4 4 7 13 15 12 12 12 9
39 31 26 30 28 26 28 28 29 30 17 6 12 11 2 4 4 8 19 16 8 7 6 5 3 2 5 7 5 6 4 4 7 5 4 5 4 6 11 8 5 10 13 8 4 2 3 3 1 1 1 1 3 1 4 1 3 4 2 2 2 2 4 2 2 4 3 3 3 4 4 3 6 6 6 8 10 8 6 4 5 10 15 15 11 12 13 9
34 20 13 26 28 25 30 30 27 21 10 9 11 5 1 4 1 8 23 19 5 3 5 5 4 4 5 4 4 5 5 5 7 6 3 5 5 4 8 9 4 6 8 5 4 3 3 3 3 1 3 1 1 2 5 6 3 2 3 4 2 1 2 2 1 3 4 4 3 2 3 6 6 4 9 11 9 7 6 5 5 8 14 16 13 14 16 16
28 10 9 29 30 28 34 29 18 12 7 7 5 0 2 4 4 7 15 14 5 3 5 5 5 6 5 5 4 5 4 4 7 6 2 5 6 4 8 12 10 10 6 4 3 4 2 3 5 2 0 2 3 3 3 4 3 3 4 6 5 3 4 3 2 1 2 3 4 4 3 8 6 4 7 8 6 5 5 5 4 4 12 20 18 18 21 20
22 5 12 32 33 34 35 18 7 9 6 5 3 2 3 4 6 8 8 7 5 3 4 5 4 4 5 5 5 6 7 4 5 5 3 6 8 6 7 12 16 17 12 4 2 3 3 4 4 2 3 4 4 3 2 3 2 2 2 3 4 4 4 6 5 3 2 2 2 4 1 7 6 4 5 7 7 6 4 5 5 1 11 20 21 21 21 17
13 7 19 35 35 37 28 7 3 8 4 3 2 2 3 2 4 7 6 5 4 2 3 3 3 4 3 4 5 7 9 6 6 8 6 4 6 5 7 14 18 16 10 3 2 3 3 4 4 1 2 2 4 2 1 1 0 1 3 3 5 3 3 5 5 4 4 4 2 3 2 7 6 3 4 8 10 9 6 8 7 4 12 20 23 23 18 13
7 10 23 34 36 36 22 4 8 12 5 3 3 2 2 1 3 7 7 6 4 4 4 3 3 4 3 4 6 8 10 6 5 9 6 2 4 5 11 20 20 12 8 7 8 9 6 3 5 4 2 3 3 1 1 3 1 4 3 3 4 3 6 4 2 4 2 4 6 5 4 8 6 3 2 5 7 8 7 7 7 10 17 22 23 19 13 10
4 6 16 29 38 38 19 2 4 9 6 5 4 3 3 2 1 6 7 5 3 4 5 3 4 5 4 4 4 3 8 5 2 5 3 1 3 3 11 23 23 15 11 10 11 12 7 3 5 6 5 5 4 5 4 3 2 2 1 4 6 7 8 5 3 4 3 5 6 6 6 8 5 4 3 4 4 6 6 7 11 16 20 21 19 15 12 10
3 2 7 16 27 30 17 3 1 5 7 8 5 4 4 2 1 3 5 4 1 4 4 2 5 7 4 5 6 4 9 6 2 4 5 5 3 2 7 19 23 17 11 10 16 14 4 1 5 7 8 9 10 9 5 5 5 4 5 8 9 8 8 6 4 4 5 3 3 6 9 9 7 4 5 7 6 6 6 9 17 21 20 19 16 14 11 9
1 0 3 5 9 12 8 5 5 4 6 9 5 4 6 5 1 1 2 2 3 5 4 3 4 7 6 9 8 6 10 7 2 5 7 7 3 2 2 10 14 13 8 11 18 12 4 3 7 7 10 11 8 7 4 6 8 9 9 9 9 9 9 7 7 8 5 6 5 11 10 10 10 6 7 9 7 6 8 12 21 23 21 18 15 13 11 8
1 1 2 1 2 3 4 8 9 4 6 9 4 3 8 6 4 4 2 1 2 6 3 1 4 10 11 12 8 5 7 5 2 4 4 4 3 2 2 1 4 8 6 8 12 7 3 7 8 7 11 12 5 4 4 6 6 7 9 12 11 12 12 12 14 11 8 7 12 16 13 14 14 9 8 11 10 10 11 15 21 22 19 18 15 12 10 7
2 2 1 0 1 0 3 11 13 6 7 10 4 3 8 10 8 5 2 3 1 3 3 4 7 9 11 12 9 7 7 7 6 7 4 5 5 4 3 1 2 4 5 5 5 3 3 5 5 7 11 12 3 4 2 5 5 4 8 12 13 14 16 16 16 14 11 12 18 17 11 11 13 9 9 14 15 13 10 10 15 19 20 18 16 14 13 11
2 2 3 4 3 2 5 11 12 6 5 8 7 3 7 11 12 6 1 4 4 2 2 6 7 6 8 10 10 9 11 13 12 9 7 6 2 2 3 3 3 2 3 4 2 1 3 3 1 6 6 8 3 5 3 4 6 4 4 6 10 13 14 15 15 14 11 13 18 15 8 9 9 10 13 16 13 9 9 11 16 21 22 20 19 20 20 18
3 3 5 5 3 2 4 5 7 7 5 6 8 5 6 10 12 7 1 0 4 4 6 8 6 5 4 6 10 11 12 14 11 11 17 14 9 11 8 5 8 7 3 4 3 2 3 1 3 5 4 5 3 5 5 6 5 4 2 5 11 12 12 14 15 13 12 14 16 10 9 12 7 9 12 16 12 10 14 18 20 23 25 24 23 25 25 23
3 4 5 5 3 3 4 2 4 7 6 6 8 5 5 5 7 8 4 2 2 4 7 10 9 6 4 7 13 11 7 7 4 7 19 17 12 17 15 11 17 15 7 6 4 2 6 5 2 3 5 3 2 4 7 7 4 2 4 10 16 15 14 13 11 10 12 12 11 9 12 11 5 9 10 11 11 13 18 23 26 29 30 28 27 27 26 24
Wind_Direction
216 215 209 208 206 210 209 203 198 196 196 198 200 203 203 204 204 201 198 196 194 194 196 199 202 204 204 206 215 217 214 222 233 245 239 235 247 257 249 244 239 245 243 235 224 213 212 206 198 188 176 167 167 170 161 156 156 144 103 93 144 176 202 187 178 188 160 174 192 179 176 169 170 175 166 167 182 197 193 195 197 195 191 167 175 177 186 187
215 213 211 208 208 211 206 199 196 194 194 196 199 203 203 204 205 203 201 199 197 199 204 210 212 210 208 207 211 210 215 227 245 250 230 230 253 251 242 239 236 245 237 224 218 212 212 207 194 183 174 170 163 165 164 160 150 119 100 117 201 199 203 190 175 178 145 132 173 174 180 179 180 172 167 168 185 183 188 204 208 205 203 194 185 191 197 191
211 209 209 208 209 209 200 194 194 194 192 195 199 202 203 204 206 205 205 204 204 207 213 216 215 209 202 198 200 207 219 235 262 249 227 230 253 243 233 233 235 243 231 218 217 213 210 205 191 181 175 171 163 166 165 159 161 105 111 127 231 209 203 196 181 178 148 120 163 169 178 183 184 173 174 182 176 182 201 207 209 214 209 203 199 200 198 192
208 208 207 206 206 201 195 194 192 191 191 194 198 201 204 204 206 207 208 209 210 214 216 215 210 201 196 196 199 204 208 252 261 246 231 238 247 236 227 229 233 237 225 214 218 212 202 196 186 180 174 163 157 170 169 162 176 145 125 162 212 181 154 182 184 183 174 142 168 166 165 182 186 179 183 173 150 225 230 216 215 219 209 201 202 203 198 192
205 206 206 205 202 195 192 195 191 188 190 193 196 200 203 204 206 208 209 210 213 214 213 209 205 200 198 200 196 183 154 33 255 239 237 242 235 226 225 226 230 230 218 214 219 207 193 188 178 175 172 154 146 160 184 172 154 124 113 165 156 146 135 163 163 181 183 159 163 160 159 181 179 185 193 182 178 226 232 225 225 226 216 206 205 204 200 195
201 202 204 204 199 193 193 196 192 186 187 190 193 197 200 202 205 207 208 209 211 211 207 206 205 203 200 199 189 171 167 189 220 174 217 231 216 216 221 222 227 220 213 216 214 199 188 180 172 173 166 133 156 158 174 172 156 132 244 142 139 134 124 151 160 178 178 164 164 166 170 175 168 189 202 201 212 219 232 241 233 228 220 214 212 210 207 201
200 200 202 203 197 192 193 194 187 182 186 190 191 194 196 198 202 205 206 207 209 209 205 204 205 203 197 192 185 179 195 216 202 114 178 217 201 208 217 220 221 212 210 214 208 197 187 178 172 173 155 103 174 172 156 164 164 123 143 176 143 117 84 138 164 167 168 170 173 171 170 173 174 185 205 216 223 220 228 245 233 225 217 216 216 215 217 212
201 200 202 205 197 192 195 188 179 181 186 188 190 192 192 193 197 202 203 205 208 207 205 203 202 199 192 187 186 188 209 223 229 223 278 234 200 202 212 216 214 207 208 214 211 199 190 182 175 171 159 148 178 165 150 149 126 92 138 167 136 102 87 106 132 150 158 163 166 166 162 180 187 185 221 228 225 219 225 225 226 224 215 216 217 218 221 218
201 202 204 203 195 193 194 182 177 183 184 184 189 191 189 189 193 197 200 203 205 205 204 201 198 195 187 186 187 192 218 226 233 237 257 288 215 201 206 211 208 204 207 213 209 202 197 187 179 177 181 184 167 156 156 152 242 156 136 142 129 101 100 104 117 130 144 149 155 159 137 171 185 200 251 244 234 224 227 229 230 229 218 217 217 220 222 221
201 200 201 201 195 193 189 179 180 183 179 182 187 187 185 187 190 192 195 198 199 200 199 196 195 193 186 184 182 191 221 226 237 237 241 271 225 203 202 203 204 204 210 212 205 203 201 196 189 182 181 176 157 149 162 165 190 141 121 109 102 99 101 105 115 117 128 136 153 160 115 131 164 180 251 246 239 227 227 230 231 230 227 221 219 222 222 224
200 198 197 198 195 194 187 179 182 179 176 180 182 182 182 184 186 188 190 191 192 191 191 191 191 191 187 183 184 195 211 221 240 238 233 242 238 212 201 195 203 207 210 211 206 203 201 204 192 177 176 176 155 133 153 149 136 133 120 93 66 83 90 85 106 116 122 122 153 154 116 57 125 192 234 222 230 228 222 225 229 229 230 227 224 224 223 223
198 197 196 196 194 196 191 183 179 175 175 176 178 179 178 180 181 182 184 183 183 183 184 187 188 188 186 189 200 203 204 215 233 233 228 232 239 218 202 196 200 205 208 208 209 205 201 202 193 188 183 161 152 120 142 138 131 131 121 93 22 43 64 46 69 111 123 112 143 132 112 292 204 223 226 214 230 236 222 222 226 227 228 228 228 227 225 224
196 195 194 193 192 194 193 186 178 172 174 174 174 175 174 175 175 176 177 176 177 177 181 184 185 187 182 192 210 208 206 211 213 221 223 226 233 214 204 203 200 200 202 201 203 204 200 198 198 198 170 151 148 127 138 128 125 130 98 98 66 35 22 349 14 88 115 111 148 136 195 261 251 240 226 225 236 234 230 226 226 225 226 227 228 229 228 226
192 193 194 193 191 189 188 186 179 172 172 171 171 171 170 170 170 171 171 171 173 174 179 181 182 184 184 199 215 212 214 210 200 210 216 219 222 209 202 205 201 198 202 201 195 194 193 188 188 185 159 149 136 121 119 74 90 121 78 60 77 133 252 309 351 96 124 138 161 137 207 259 271 256 229 239 243 236 235 231 228 227 225 226 227 229 229 227
188 190 190 190 189 185 182 181 178 174 170 169 169 169 168 168 168 167 167 168 170 172 175 176 178 178 187 212 221 215 216 214 203 201 209 214 213 206 200 200 200 197 200 200 191 185 183 177 174 156 126 136 133 118 80 22 26 42 110 315 352 154 243 308 344 50 137 169 155 128 211 266 273 266 240 248 244 234 237 237 234 230 226 226 227 228 229 228
185 185 186 187 185 181 178 176 176 174 168 166 167 166 166 167 166 165 166 166 168 170 172 174 176 174 180 218 215 211 213 213 208 199 204 210 205 200 196 195 198 196 191 190 186 182 177 166 152 130 118 132 132 110 73 55 1 353 109 173 232 157 224 303 333 347 105 143 141 133 207 268 279 243 187 158 254 237 238 240 236 232 230 227 228 231 232 232
182 182 183 183 181 178 175 174 174 170 166 165 165 165 164 164 164 164 164 164 165 166 170 173 173 175 201 219 209 211 209 208 206 203 204 207 201 195 193 190 189 188 181 175 176 174 170 156 141 131 115 118 120 114 110 115 231 306 47 123 200 178 176 257 253 309 41 122 210 68 216 243 262 245 221 262 305 278 253 248 243 238 236 232 231 234 235 237
179 180 181 180 178 175 173 173 171 166 164 163 163 162 161 161 162 163 163 160 156 155 165 173 165 169 231 216 203 207 207 206 202 202 206 203 195 188 191 191 184 179 168 160 165 162 157 143 127 131 80 83 144 139 153 199 183 182 185 148 176 194 186 236 233 251 37 101 194 177 234 251 263 272 269 275 287 280 272 264 256 249 243 238 236 236 238 240
177 179 180 179 177 174 173 172 167 164 162 160 157 155 152 151 151 157 162 157 151 146 161 178 169 149 248 199 195 199 200 197 194 199 203 198 187 183 187 189 181 171 158 146 164 160 143 111 98 142 160 166 192 179 179 197 179 175 175 141 142 157 217 245 249 271 114 128 207 209 227 259 265 273 274 272 275 275 275 272 266 260 251 243 239 238 238 240
175 178 180 179 177 174 174 171 166 164 163 161 158 152 147 146 139 149 164 161 158 142 102 176 176 160 29 177 183 185 178 178 187 191 194 193 183 177 175 172 167 161 154 148 169 161 134 140 174 189 187 187 195 181 159 165 150 143 129 111 134 148 208 249 262 305 59 149 236 233 245 270 264 264 271 273 279 276 271 270 267 265 258 249 242 240 239 240
172 176 179 179 178 176 175 171 167 166 165 165 164 158 158 162 154 161 162 158 162 139 77 172 180 183 19 170 175 174 165 162 180 184 184 187 178 171 170 163 152 149 173 129 123 119 132 175 211 210 191 172 165 144 117 98 97 111 132 134 131 158 204 249 250 318 21 172 263 337 286 267 263 264 270 271 271 264 264 264 265 264 259 254 250 247 244 244
170 172 177 180 179 177 176 171 169 168 165 169 169 164 171 170 166 170 162 146 164 153 75 171 184 190 26 172 173 168 162 144 162 178 177 177 175 176 173 158 141 151 163 108 108 109 157 216 231 194 154 115 86 94 102 89 89 89 113 129 147 211 216 291 288 342 23 196 271 355 302 266 266 267 266 263 249 253 261 259 260 262 258 257 254 253 252 251
169 169 174 180 179 177 177 173 171 170 169 172 170 162 168 167 159 168 163 141 165 176 141 168 189 195 143 163 176 172 163 140 157 174 174 174 176 179 170 153 134 140 149 164 154 154 183 250 237 163 142 119 86 74 98 89 87 93 111 130 176 209 170 224 242 327 20 69 238 344 295 280 280 280 269 260 248 252 259 256 256 255 254 257 256 256 257 257
171 171 173 179 179 178 177 175 173 173 174 173 167 159 166 164 154 161 156 103 132 188 195 176 193 200 194 161 178 181 163 141 163 174 175 175 171 171 171 154 130 140 178 185 162 164 206 269 191 149 148 141 132 132 129 127 135 214 155 148 166 190 181 196 179 96 10 22 65 60 318 298 297 279 262 268 273 259 256 255 254 251 251 255 256 257 258 262
175 174 175 177 179 179 177 177 177 177 176 172 166 160 165 164 157 159 150 70 90 183 198 196 200 203 202 188 179 179 159 138 163 174 177 179 170 159 157 154 150 178 185 153 137 172 238 263 145 141 143 144 142 173 185 163 163 254 223 179 168 173 163 140 127 93 49 338 12 44 297 288 314 282 253 291 341 285 263 259 254 249 249 253 256 259 262 266
177 176 178 179 180 180 177 181 182 178 176 172 166 161 164 163 157 159 145 54 301 203 175 186 184 193 198 192 171 161 155 155 166 176 178 180 178 161 141 145 128 177 167 135 130 181 236 99 124 134 135 131 138 193 205 158 142 213 240 175 145 139 135 138 144 115 108 204 331 63 175 257 316 303 261 296 325 292 286 274 258 252 250 252 255 259 263 261
178 177 180 183 185 184 180 182 182 177 175 173 166 160 163 160 155 158 132 38 273 187 146 175 178 179 185 179 167 155 152 169 155 173 178 178 183 172 162 168 95 142 163 130 158 221 109 102 80 107 120 124 145 207 212 150 132 205 235 139 131 133 145 153 140 120 167 191 348 21 129 221 294 277 268 305 307 291 295 279 263 257 254 254 255 258 259 255
179 181 182 186 191 192 187 185 181 175 175 172 163 158 160 156 153 153 115 66 208 153 141 172 171 173 175 170 171 154 131 154 143 174 181 177 181 171 170 189 149 146 160 137 190 249 96 150 167 141 129 159 181 231 200 146 126 241 204 123 132 131 136 136 113 109 77 109 280 321 42 185 263 273 302 344 304 282 284 265 262 268 260 255 258 261 262 257
180 182 182 185 190 193 193 193 184 176 174 168 159 158 158 152 147 129 78 139 168 109 142 164 162 169 168 163 170 146 128 149 133 165 174 173 180 172 151 171 143 119 77 89 171 213 61 179 187 156 155 189 193 306 211 150 131 170 135 97 88 78 85 91 97 110 55 64 231 271 12 225 264 281 305 357 287 257 263 259 266 285 273 263 277 276 270 263
181 180 181 185 187 186 187 189 183 177 171 163 158 156 154 148 137 118 135 198 155 102 138 157 168 169 158 152 165 142 125 132 128 138 153 161 167 152 115 132 129 112 57 36 90 238 327 118 120 128 156 161 135 61 29 80 133 138 120 86 73 43 38 51 55 85 74 297 249 259 314 284 275 278 244 212 225 224 240 269 285 296 322 24 338 321 280 234
182 179 182 186 188 187 182 176 176 174 167 161 155 150 148 138 103 137 183 191 125 108 120 152 181 163 160 161 169 169 115 93 138 140 145 147 139 127 115 124 111 89 60 48 58 332 3 71 42 81 128 124 109 62 37 63 118 117 101 105 94 12 13 27 357 43 113 247 264 279 306 160 222 260 246 240 261 233 208 221 241 276 319 18 15 13 90 141
183 183 184 185 189 194 187 176 171 167 163 160 154 151 145 111 138 187 185 149 148 184 174 183 200 175 173 170 161 168 128 106 158 150 148 148 145 156 152 174 158 105 180 181 124 354 38 45 316 61 152 153 116 79 40 2 29 77 111 121 105 25 26 14 300 341 204 239 276 295 292 211 231 252 259 265 269 248 226 228 241 270 287 324 9 31 120 131
186 185 184 185 191 191 185 177 168 164 162 159 156 151 131 124 195 198 186 171 197 189 154 157 165 157 166 165 162 172 126 140 177 157 136 128 153 192 239 182 151 123 184 178 125 92 353 306 312 104 212 230 153 125 133 253 228 131 145 137 129 118 110 213 246 291 250 249 296 292 262 263 271 270 250 250 251 229 235 246 257 273 276 293 342 11 141 137
186 186 186 186 185 177 176 176 168 163 162 160 158 146 125 178 198 179 175 199 242 71 118 128 124 131 158 167 188 182 123 71 171 138 131 129 144 197 227 215 169 103 113 150 152 162 178 262 238 169 200 206 178 169 158 146 139 181 174 129 147 157 154 194 205 188 214 242 307 297 252 200 222 272 245 247 262 262 253 255 258 262 262 271 304 301 166 152
186 188 188 182 175 169 174 176 169 165 164 161 157 158 173 193 202 175 177 189 170 88 62 96 121 139 178 279 305 210 149 135 170 116 131 162 171 188 188 199 205 142 126 159 198 169 170 235 267 299 303 142 170 211 143 109 117 237 112 105 164 182 140 142 176 174 163 130 276 252 241 213 215 281 276 267 280 274 258 254 250 247 247 249 259 225 169 167
181 181 182 178 173 170 172 174 170 168 168 162 155 190 195 201 191 174 171 147 144 137 100 83 101 139 180 190 320 240 320 108 167 142 149 187 206 193 190 202 194 176 158 159 175 158 155 251 320 349 358 45 148 211 114 113 163 171 108 158 212 164 115 116 162 98 93 140 239 211 255 291 324 293 293 312 297 278 256 246 242 236 235 235 232 206 174 171
170 171 175 175 171 167 168 173 172 172 171 167 181 196 199 203 161 143 142 128 134 136 124 135 159 150 172 181 201 209 210 115 169 183 173 186 228 193 197 229 190 187 190 157 177 200 156 145 340 26 84 353 340 104 57 38 94 123 166 201 192 122 98 112 135 23 51 205 269 291 235 285 333 280 313 341 268 263 254 235 239 227 219 223 221 199 178 170
163 164 167 169 168 164 168 174 175 174 171 170 208 207 195 174 174 140 139 136 133 135 136 165 170 153 172 176 192 194 182 170 182 184 167 180 241 195 180 201 194 192 195 161 146 209 134 126 330 13 148 308 343 86 83 22 37 109 176 168 122 141 171 114 136 155 129 215 274 305 274 258 210 223 293 285 230 246 243 204 216 212 203 209 208 194 188 182
164 159 160 167 168 168 174 180 177 172 168 183 208 215 188 146 194 166 149 141 129 136 151 178 162 124 169 170 168 170 172 176 173 181 177 181 233 202 178 190 196 189 187 165 157 192 112 134 216 319 245 280 4 78 171 199 20 44 92 110 82 134 166 166 145 158 174 189 237 303 325 258 224 211 214 222 223 230 221 196 215 214 201 197 192 185 185 168
162 151 157 169 170 174 176 175 170 166 179 204 196 211 200 140 149 169 154 145 128 135 162 185 164 147 163 166 162 165 165 160 166 194 218 183 202 223 194 190 159 162 173 135 132 160 90 123 174 312 325 193 165 220 195 185 164 90 119 165 182 59 117 164 90 110 139 154 183 241 291 263 247 202 197 218 227 217 206 197 210 210 195 185 171 161 156 140
157 133 155 165 167 173 168 162 166 176 198 204 181 71 218 161 125 160 160 151 132 97 133 145 147 151 152 153 172 174 153 144 171 194 222 190 200 229 208 192 161 145 139 84 132 167 129 144 155 139 154 182 220 256 214 198 189 146 169 187 177 144 116 143 230 258 117 139 167 171 252 268 256 207 205 222 229 220 215 218 227 206 181 175 161 147 141 130
155 131 163 166 169 171 165 157 179 197 200 198 176 135 164 144 136 157 167 155 129 87 108 119 123 144 149 155 167 162 153 153 176 188 205 207 206 214 207 188 165 156 153 141 164 156 110 108 115 139 203 205 260 284 192 221 241 132 192 195 162 156 139 151 202 222 121 120 141 116 256 273 262 217 219 237 244 241 238 248 264 207 170 171 160 146 139 126
137 124 161 169 172 171 168 157 176 190 220 204 158 97 114 107 134 157 171 171 151 117 119 126 139 153 161 163 151 159 169 171 185 195 202 210 211 212 185 169 161 158 154 140 151 140 112 108 110 58 307 312 310 301 152 244 233 196 238 194 165 182 152 149 182 169 132 154 150 94 276 271 272 254 238 248 257 260 250 248 251 191 162 160 153 146 141 128
103 116 153 169 175 174 174 187 185 188 199 138 119 83 128 123 140 158 175 186 174 142 132 139 164 156 153 146 141 171 183 178 200 205 196 192 207 194 170 166 163 165 176 182 177 173 178 160 130 115 34 357 349 346 315 318 231 210 230 177 158 125 97 101 117 104 126 198 164 147 232 256 274 309 291 267 276 277 255 234 216 172 154 151 149 148 143 127
99 101 144 164 175 179 186 245 181 180 165 132 143 176 152 72 124 167 168 168 161 144 143 162 155 129 123 131 106 155 186 175 182 195 188 228 219 195 177 174 172 178 196 190 165 162 176 181 150 155 170 181 193 200 212 227 197 206 208 160 171 158 143 149 117 112 211 224 158 161 225 255 289 340 317 278 282 275 243 203 189 172 158 156 155 148 137 125
126 58 130 156 175 187 201 249 135 168 172 161 164 185 157 106 119 156 140 145 155 122 110 109 135 115 110 149 130 158 201 201 123 157 191 206 212 254 191 183 182 186 192 175 157 150 142 214 181 191 200 197 202 205 184 136 144 187 197 177 178 176 155 131 115 161 194 171 162 212 232 255 278 294 273 258 238 236 228 189 185 181 173 169 163 152 143 131
124 219 150 142 171 188 203 206 182 175 174 169 170 188 172 156 140 108 120 162 178 150 96 41 149 156 165 167 155 173 199 202 150 165 193 198 202 346 173 180 186 188 179 166 163 146 92 215 201 204 220 221 213 200 166 141 166 188 182 169 172 170 150 148 186 201 153 120 233 241 224 240 255 238 236 245 227 228 236 203 191 189 185 180 170 159 156 146
158 135 171 174 168 193 203 185 175 153 152 166 171 164 170 175 171 166 159 48 165 173 147 53 194 187 174 164 157 165 180 188 209 201 186 171 161 84 90 141 194 187 169 163 168 145 117 205 203 190 219 233 209 160 170 160 165 177 170 170 174 168 165 184 207 205 157 163 237 238 211 220 236 220 217 231 219 214 219 203 195 194 194 192 184 174 176 182
167 133 144 129 86 37 154 157 158 145 149 169 183 157 172 187 192 184 126 81 169 222 169 174 207 198 175 165 160 160 170 181 208 217 185 156 165 142 120 144 213 190 159 143 171 169 150 204 197 171 215 239 183 122 168 157 145 169 179 177 174 173 181 196 209 211 193 204 236 239 224 232 235 214 216 230 225 221 223 211 204 205 207 208 209 214 225 240
149 161 144 115 81 58 113 139 154 157 151 174 195 185 175 189 194 194 106 125 165 221 194 188 193 176 169 175 175 183 193 189 196 203 170 133 134 167 159 179 172 146 139 143 159 186 173 221 162 138 206 249 179 124 123 135 147 163 170 172 172 179 192 205 215 215 206 223 242 247 265 275 242 200 213 233 234 231 236 231 222 219 221 227 233 238 245 255
123 136 144 129 95 118 133 132 153 164 166 187 195 181 178 197 194 179 169 180 157 162 179 177 157 126 137 186 203 212 205 194 197 189 171 166 181 188 187 179 153 137 138 167 148 127 169 208 44 105 186 251 223 160 139 101 102 113 119 172 179 186 198 207 215 210 197 218 238 247 263 266 235 173 200 228 227 223 234 236 233 230 231 235 239 242 247 257
144 127 138 143 129 147 155 120 147 171 184 193 192 173 155 180 176 164 189 260 165 155 171 168 153 121 121 194 213 221 202 193 229 197 180 182 191 188 186 173 162 158 158 167 160 143 155 150 99 145 187 244 306 149 136 106 101 178 220 194 188 197 206 208 222 224 207 207 218 225 235 240 192 153 183 211 210 215 229 234 236 235 233 234 239 246 253 264